| time (UTC) | temp C | wind direction | speed KPH | gust KPH | rain 1hr cm | rain 24hr cm | rain mn cm | humidity % | barometer mb |
| 20260503072231 | 15 | 360 | 0.0 | 0.0 | 0.00 | 0.00 | 0.00 | 66 | 1016.7 |
| 20260503071736 | 14 | 355 | 0.0 | 0.0 | 0.00 | 0.00 | 0.00 | 67 | 1016.8 |
| 20260503071222 | 14 | 355 | 0.0 | 0.0 | 0.00 | 0.00 | 0.00 | 68 | 1016.8 |
| 20260503070727 | 13 | 355 | 0.0 | 0.0 | 0.00 | 0.00 | 0.00 | 69 | 1016.8 |
| 20260503070234 | 13 | 355 | 0.0 | 0.0 | 0.00 | 0.00 | 0.00 | 70 | 1016.8 |
| 20260503060236 | 10 | 355 | 4.8 | 9.7 | 0.00 | 0.00 | 0.00 | 79 | 1016.9 |
| 20260503054730 | 9 | 360 | 3.2 | 8.0 | 0.00 | 0.00 | 0.00 | 83 | 1016.9 |
| 20260503054237 | 9 | 26 | 1.6 | 6.4 | 0.00 | 0.00 | 0.00 | 84 | 1016.9 |
| 20260503053741 | 8 | 5 | 1.6 | 6.4 | 0.00 | 0.00 | 0.00 | 85 | 1016.9 |
| 20260503053245 | 8 | 11 | 3.2 | 4.8 | 0.00 | 0.00 | 0.00 | 86 | 1017.0 |
| 20260503052730 | 8 | 355 | 3.2 | 4.8 | 0.00 | 0.00 | 0.00 | 87 | 1016.9 |
| 20260503052236 | 8 | 9 | 3.2 | 4.8 | 0.00 | 0.00 | 0.00 | 87 | 1016.9 |
| 20260503051746 | 8 | 287 | 0.0 | 4.8 | 0.00 | 0.00 | 0.00 | 87 | 1016.9 |
| 20260503051231 | 8 | 287 | 1.6 | 4.8 | 0.00 | 0.00 | 0.00 | 87 | 1017.1 |
| 20260503050736 | 7 | 49 | 1.6 | 3.2 | 0.00 | 0.00 | 0.00 | 88 | 1017.0 |
| 20260503050222 | 7 | 49 | 0.0 | 0.0 | 0.00 | 0.00 | 0.00 | 87 | 1017.0 |
| 20260503045727 | 7 | 49 | 0.0 | 0.0 | 0.00 | 0.00 | 0.00 | 87 | 1017.0 |
| 20260503045232 | 7 | 49 | 0.0 | 0.0 | 0.00 | 0.00 | 0.00 | 87 | 1016.9 |
| 20260503044737 | 7 | 49 | 0.0 | 0.0 | 0.00 | 0.00 | 0.00 | 87 | 1017.0 |
| 20260503044303 | 8 | 49 | 0.0 | 0.0 | 0.00 | 0.00 | 0.00 | 87 | 1017.0 |
| 20260503043747 | 8 | 49 | 0.0 | 0.0 | 0.00 | 0.00 | 0.00 | 86 | 1017.0 |
| 20260503043232 | 8 | 49 | 0.0 | 3.2 | 0.00 | 0.00 | 0.00 | 86 | 1017.0 |
| 20260503042737 | 8 | 49 | 0.0 | 4.8 | 0.00 | 0.00 | 0.00 | 86 | 1017.0 |
| 20260503042242 | 8 | 24 | 1.6 | 3.2 | 0.00 | 0.00 | 0.00 | 86 | 1017.0 |
| 20260503041746 | 8 | 202 | 0.0 | 3.2 | 0.00 | 0.00 | 0.00 | 86 | 1017.0 |
| 20260503041230 | 8 | 202 | 1.6 | 3.2 | 0.00 | 0.00 | 0.00 | 86 | 1017.0 |
| 20260503040757 | 8 | 317 | 0.0 | 1.6 | 0.00 | 0.00 | 0.00 | 86 | 1017.0 |
| 20260503040226 | 8 | 317 | 0.0 | 8.0 | 0.00 | 0.00 | 0.00 | 86 | 1017.0 |
| 20260503035731 | 8 | 317 | 3.2 | 8.0 | 0.00 | 0.00 | 0.00 | 87 | 1017.0 |
| 20260503035256 | 8 | 55 | 4.8 | 6.4 | 0.00 | 0.00 | 0.00 | 87 | 1017.0 |
| 20260503034801 | 8 | 36 | 1.6 | 4.8 | 0.00 | 0.00 | 0.00 | 87 | 1017.0 |
| 20260503034226 | 8 | 27 | 0.0 | 3.2 | 0.00 | 0.00 | 0.00 | 86 | 1017.0 |
| 20260503033749 | 8 | 27 | 1.6 | 3.2 | 0.00 | 0.00 | 0.00 | 86 | 1017.1 |
| 20260503033234 | 8 | 186 | 1.6 | 3.2 | 0.00 | 0.00 | 0.00 | 86 | 1017.1 |
| 20260503032740 | 8 | 119 | 0.0 | 4.8 | 0.00 | 0.00 | 0.00 | 85 | 1017.3 |
| 20260503032226 | 8 | 193 | 1.6 | 6.4 | 0.00 | 0.00 | 0.00 | 85 | 1017.2 |
| 20260503031732 | 8 | 196 | 1.6 | 6.4 | 0.00 | 0.00 | 0.00 | 85 | 1017.3 |
| 20260503031238 | 8 | 5 | 0.0 | 6.4 | 0.00 | 0.00 | 0.00 | 85 | 1017.3 |
| 20260503030743 | 8 | 159 | 0.0 | 4.8 | 0.00 | 0.00 | 0.00 | 85 | 1017.2 |
| 20260503030226 | 8 | 180 | 1.6 | 4.8 | 0.00 | 0.00 | 0.00 | 84 | 1017.3 |
| 20260503025732 | 8 | 290 | 1.6 | 6.4 | 0.00 | 0.00 | 0.00 | 84 | 1017.2 |
| 20260503025257 | 8 | 355 | 1.6 | 8.0 | 0.00 | 0.00 | 0.00 | 84 | 1017.3 |
| 20260503024741 | 8 | 38 | 6.4 | 8.0 | 0.00 | 0.00 | 0.00 | 84 | 1017.4 |
| 20260503024229 | 8 | 37 | 3.2 | 6.4 | 0.00 | 0.00 | 0.00 | 85 | 1017.3 |
| 20260503023754 | 8 | 41 | 1.6 | 3.2 | 0.00 | 0.00 | 0.00 | 85 | 1017.4 |
| 20260503023238 | 8 | 48 | 0.0 | 0.0 | 0.00 | 0.00 | 0.00 | 84 | 1017.4 |
| 20260503022744 | 8 | 61 | 0.0 | 0.0 | 0.00 | 0.00 | 0.00 | 84 | 1017.4 |
| 20260503022228 | 8 | 61 | 0.0 | 0.0 | 0.00 | 0.00 | 0.00 | 84 | 1017.4 |
| 20260503021734 | 8 | 61 | 0.0 | 0.0 | 0.00 | 0.00 | 0.00 | 84 | 1017.5 |
| 20260503021259 | 8 | 61 | 0.0 | 0.0 | 0.00 | 0.00 | 0.00 | 83 | 1017.5 |
| 20260503020724 | 8 | 61 | 0.0 | 0.0 | 0.00 | 0.00 | 0.00 | 83 | 1017.5 |
| 20260503020228 | 9 | 61 | 0.0 | 0.0 | 0.00 | 0.00 | 0.00 | 83 | 1017.5 |
| 20260503015753 | 9 | 61 | 0.0 | 1.6 | 0.00 | 0.00 | 0.00 | 82 | 1017.5 |
| 20260503015258 | 9 | 61 | 0.0 | 3.2 | 0.00 | 0.00 | 0.00 | 82 | 1017.5 |
| 20260503014723 | 9 | 303 | 0.0 | 6.4 | 0.00 | 0.00 | 0.00 | 82 | 1017.5 |
| 20260503014227 | 9 | 55 | 3.2 | 6.4 | 0.00 | 0.00 | 0.00 | 81 | 1017.5 |
| 20260503013731 | 9 | 40 | 0.0 | 1.6 | 0.00 | 0.00 | 0.00 | 82 | 1017.5 |
| 20260503013235 | 9 | 29 | 0.0 | 1.6 | 0.00 | 0.00 | 0.00 | 81 | 1017.6 |
| 20260503012741 | 9 | 50 | 0.0 | 4.8 | 0.00 | 0.00 | 0.00 | 81 | 1017.6 |
| 20260503012225 | 9 | 68 | 3.2 | 4.8 | 0.00 | 0.00 | 0.00 | 81 | 1017.6 |
| 20260503011750 | 9 | 32 | 0.0 | 3.2 | 0.00 | 0.00 | 0.00 | 82 | 1017.7 |
| 20260503011239 | 9 | 63 | 1.6 | 4.8 | 0.00 | 0.00 | 0.00 | 81 | 1017.7 |
| 20260503010725 | 10 | 31 | 0.0 | 9.7 | 0.00 | 0.00 | 0.00 | 81 | 1017.8 |
| 20260503010251 | 9 | 331 | 4.8 | 9.7 | 0.00 | 0.00 | 0.00 | 82 | 1017.9 |
| 20260503005736 | 9 | 29 | 1.6 | 4.8 | 0.00 | 0.00 | 0.00 | 81 | 1017.9 |
| 20260503005300 | 10 | 21 | 0.0 | 0.0 | 0.00 | 0.00 | 0.00 | 80 | 1018.0 |
| 20260503004745 | 10 | 219 | 0.0 | 0.0 | 0.00 | 0.00 | 0.00 | 81 | 1018.0 |
| 20260503004229 | 10 | 219 | 0.0 | 0.0 | 0.00 | 0.00 | 0.00 | 80 | 1018.2 |
| 20260503003735 | 10 | 32 | 0.0 | 0.0 | 0.00 | 0.00 | 0.00 | 79 | 1018.1 |
| 20260503003222 | 10 | 57 | 0.0 | 3.2 | 0.00 | 0.00 | 0.00 | 79 | 1018.2 |
| 20260503002728 | 10 | 57 | 0.0 | 6.4 | 0.00 | 0.00 | 0.00 | 79 | 1018.2 |
| 20260503002233 | 10 | 58 | 3.2 | 6.4 | 0.00 | 0.00 | 0.00 | 79 | 1018.3 |
| 20260503001739 | 10 | 41 | 1.6 | 8.0 | 0.00 | 0.00 | 0.00 | 78 | 1018.3 |
| 20260503001227 | 10 | 277 | 0.0 | 8.0 | 0.00 | 0.00 | 0.00 | 78 | 1018.4 |
| 20260503000729 | 11 | 334 | 1.6 | 9.7 | 0.00 | 0.00 | 0.00 | 77 | 1018.4 |
| 20260503000237 | 11 | 288 | 3.2 | 12.9 | 0.00 | 0.00 | 0.00 | 77 | 1018.5 |
| 20260502235747 | 11 | 348 | 6.4 | 16.1 | 0.00 | 0.00 | 0.00 | 77 | 1018.5 |
| 20260502235229 | 11 | 329 | 6.4 | 16.1 | 0.00 | 0.00 | 0.00 | 78 | 1018.5 |
| 20260502234734 | 10 | 13 | 4.8 | 16.1 | 0.00 | 0.00 | 0.00 | 78 | 1018.7 |
| 20260502234238 | 10 | 36 | 4.8 | 14.5 | 0.00 | 0.00 | 0.00 | 78 | 1018.7 |
| 20260502233724 | 10 | 360 | 6.4 | 14.5 | 0.00 | 0.00 | 0.00 | 78 | 1018.8 |
| 20260502233230 | 11 | 42 | 4.8 | 12.9 | 0.00 | 0.00 | 0.00 | 78 | 1018.8 |
| 20260502232735 | 11 | 21 | 6.4 | 12.9 | 0.00 | 0.00 | 0.00 | 78 | 1018.9 |
| 20260502232304 | 11 | 344 | 6.4 | 9.7 | 0.00 | 0.00 | 0.00 | 78 | 1018.9 |
| 20260502231727 | 10 | 360 | 4.8 | 11.3 | 0.00 | 0.00 | 0.00 | 78 | 1018.9 |
| 20260502231230 | 10 | 355 | 6.4 | 11.3 | 0.00 | 0.00 | 0.00 | 78 | 1018.9 |
| 20260502230736 | 11 | 40 | 4.8 | 8.0 | 0.00 | 0.00 | 0.00 | 78 | 1019.0 |
| 20260502230222 | 11 | 360 | 3.2 | 8.0 | 0.00 | 0.00 | 0.00 | 78 | 1019.0 |
| 20260502225728 | 11 | 9 | 4.8 | 9.7 | 0.00 | 0.00 | 0.00 | 77 | 1019.0 |
| 20260502225238 | 11 | 78 | 4.8 | 9.7 | 0.00 | 0.00 | 0.00 | 78 | 1019.0 |
| 20260502224724 | 11 | 28 | 4.8 | 8.0 | 0.00 | 0.00 | 0.00 | 77 | 1019.1 |
| 20260502224230 | 10 | 44 | 4.8 | 8.0 | 0.00 | 0.00 | 0.00 | 78 | 1019.1 |
| 20260502223736 | 10 | 58 | 1.6 | 4.8 | 0.00 | 0.00 | 0.00 | 77 | 1019.1 |
| 20260502223302 | 10 | 70 | 3.2 | 4.8 | 0.00 | 0.00 | 0.00 | 77 | 1019.1 |
| 20260502222727 | 11 | 51 | 0.0 | 1.6 | 0.00 | 0.00 | 0.00 | 77 | 1019.1 |
| 20260502222233 | 11 | 42 | 0.0 | 1.6 | 0.00 | 0.00 | 0.00 | 77 | 1019.1 |
| 20260502221739 | 11 | 42 | 0.0 | 1.6 | 0.00 | 0.00 | 0.00 | 76 | 1019.2 |
| 20260502221224 | 11 | 42 | 0.0 | 4.8 | 0.00 | 0.00 | 0.00 | 76 | 1019.1 |
| 20260502220750 | 11 | 42 | 0.0 | 6.4 | 0.00 | 0.00 | 0.00 | 76 | 1019.1 |
| 20260502220235 | 11 | 236 | 1.6 | 6.4 | 0.00 | 0.00 | 0.00 | 76 | 1019.1 |
| 20260502215724 | 11 | 232 | 1.6 | 8.0 | 0.00 | 0.00 | 0.00 | 75 | 1019.1 |
| 20260502215229 | 11 | 59 | 4.8 | 12.9 | 0.00 | 0.00 | 0.00 | 75 | 1019.0 |
| 20260502214755 | 11 | 15 | 6.4 | 12.9 | 0.00 | 0.00 | 0.00 | 75 | 1018.9 |
| 20260502214240 | 12 | 325 | 6.4 | 9.7 | 0.00 | 0.00 | 0.00 | 74 | 1018.9 |
| 20260502213724 | 12 | 26 | 4.8 | 8.0 | 0.00 | 0.00 | 0.00 | 74 | 1018.9 |
| 20260502213228 | 12 | 28 | 4.8 | 8.0 | 0.00 | 0.00 | 0.00 | 74 | 1018.9 |
| 20260502212734 | 12 | 38 | 4.8 | 8.0 | 0.00 | 0.00 | 0.00 | 74 | 1018.9 |
| 20260502212301 | 12 | 29 | 4.8 | 8.0 | 0.00 | 0.00 | 0.00 | 74 | 1018.9 |
| 20260502211725 | 12 | 18 | 6.4 | 8.0 | 0.00 | 0.00 | 0.00 | 74 | 1018.9 |
| 20260502211252 | 12 | 53 | 4.8 | 8.0 | 0.00 | 0.00 | 0.00 | 73 | 1019.0 |
| 20260502210736 | 12 | 9 | 3.2 | 6.4 | 0.00 | 0.00 | 0.00 | 73 | 1019.0 |
| 20260502210240 | 12 | 5 | 0.0 | 6.4 | 0.00 | 0.00 | 0.00 | 72 | 1019.0 |
| 20260502205745 | 12 | 5 | 3.2 | 6.4 | 0.00 | 0.00 | 0.00 | 72 | 1019.1 |
| 20260502205246 | 12 | 360 | 1.6 | 4.8 | 0.00 | 0.00 | 0.00 | 71 | 1019.0 |
| 20260502204728 | 12 | 51 | 1.6 | 4.8 | 0.00 | 0.00 | 0.00 | 70 | 1019.0 |
| 20260502204233 | 13 | 333 | 0.0 | 6.4 | 0.00 | 0.00 | 0.00 | 70 | 1019.0 |
| 20260502203736 | 13 | 339 | 1.6 | 6.4 | 0.00 | 0.00 | 0.00 | 69 | 1019.0 |
| 20260502203224 | 13 | 64 | 3.2 | 6.4 | 0.00 | 0.00 | 0.00 | 69 | 1018.9 |
| 20260502202728 | 13 | 346 | 4.8 | 6.4 | 0.00 | 0.00 | 0.00 | 68 | 1018.9 |
| 20260502202253 | 13 | 355 | 1.6 | 8.0 | 0.00 | 0.00 | 0.00 | 68 | 1019.0 |
| 20260502201737 | 13 | 44 | 3.2 | 8.0 | 0.00 | 0.00 | 0.00 | 67 | 1019.0 |
| 20260502201242 | 13 | 65 | 6.4 | 9.7 | 0.00 | 0.00 | 0.00 | 67 | 1019.0 |
| 20260502200728 | 13 | 360 | 4.8 | 9.7 | 0.00 | 0.00 | 0.00 | 68 | 1018.9 |
| 20260502200233 | 13 | 22 | 4.8 | 8.0 | 0.00 | 0.00 | 0.00 | 67 | 1018.9 |
| 20260502195737 | 13 | 9 | 4.8 | 8.0 | 0.00 | 0.00 | 0.00 | 67 | 1018.9 |
| 20260502195242 | 13 | 331 | 4.8 | 9.7 | 0.00 | 0.00 | 0.00 | 67 | 1018.9 |
| 20260502194728 | 14 | 46 | 4.8 | 9.7 | 0.00 | 0.00 | 0.00 | 66 | 1018.9 |
| 20260502194253 | 14 | 29 | 4.8 | 8.0 | 0.00 | 0.00 | 0.00 | 65 | 1018.9 |
| 20260502193737 | 15 | 326 | 4.8 | 8.0 | 0.00 | 0.00 | 0.00 | 64 | 1018.8 |
| 20260502193227 | 15 | 19 | 1.6 | 12.9 | 0.00 | 0.00 | 0.00 | 63 | 1018.8 |
| 20260502192734 | 15 | 19 | 4.8 | 9.7 | 0.00 | 0.00 | 0.00 | 63 | 1018.8 |
| 20260502192240 | 15 | 15 | 4.8 | 9.7 | 0.00 | 0.00 | 0.00 | 63 | 1018.8 |
| 20260502191724 | 15 | 31 | 6.4 | 9.7 | 0.00 | 0.00 | 0.00 | 63 | 1018.7 |
| 20260502191230 | 15 | 336 | 8.0 | 14.5 | 0.00 | 0.00 | 0.00 | 62 | 1018.6 |
| 20260502190736 | 15 | 22 | 6.4 | 14.5 | 0.00 | 0.00 | 0.00 | 62 | 1018.5 |
| 20260502190241 | 15 | 17 | 3.2 | 9.7 | 0.00 | 0.00 | 0.00 | 62 | 1018.5 |
| 20260502185742 | 15 | 30 | 3.2 | 8.0 | 0.00 | 0.00 | 0.00 | 61 | 1018.5 |
| 20260502185228 | 15 | 355 | 4.8 | 11.3 | 0.00 | 0.00 | 0.00 | 61 | 1018.5 |
| 20260502184728 | 16 | 62 | 6.4 | 11.3 | 0.00 | 0.00 | 0.00 | 59 | 1018.3 |
| 20260502184233 | 16 | 55 | 4.8 | 12.9 | 0.00 | 0.00 | 0.00 | 59 | 1018.3 |
| 20260502183742 | 16 | 34 | 8.0 | 12.9 | 0.00 | 0.00 | 0.00 | 59 | 1018.3 |
| 20260502183227 | 16 | 336 | 4.8 | 19.3 | 0.00 | 0.00 | 0.00 | 58 | 1018.3 |
| 20260502182733 | 16 | 61 | 9.7 | 19.3 | 0.00 | 0.00 | 0.00 | 57 | 1018.2 |
| 20260502182238 | 16 | 26 | 9.7 | 17.7 | 0.00 | 0.00 | 0.00 | 56 | 1018.1 |
| 20260502181723 | 17 | 315 | 4.8 | 8.0 | 0.00 | 0.00 | 0.00 | 55 | 1018.0 |
| 20260502181227 | 17 | 84 | 1.6 | 6.4 | 0.00 | 0.00 | 0.00 | 52 | 1018.0 |
| 20260502180731 | 18 | 304 | 4.8 | 6.4 | 0.00 | 0.00 | 0.00 | 50 | 1018.0 |
| 20260502180234 | 18 | 110 | 0.0 | 4.8 | 0.00 | 0.00 | 0.00 | 49 | 1017.9 |
| 20260502170240 | 19 | 146 | 9.7 | 16.1 | 0.00 | 0.00 | 0.00 | 46 | 1017.6 |
| 20260502164224 | 19 | 198 | 14.5 | 19.3 | 0.00 | 0.00 | 0.00 | 44 | 1017.6 |
| 20260502163748 | 19 | 198 | 9.7 | 22.5 | 0.00 | 0.00 | 0.00 | 45 | 1017.7 |
| 20260502163233 | 19 | 201 | 11.3 | 20.9 | 0.00 | 0.00 | 0.00 | 45 | 1017.7 |
| 20260502162737 | 19 | 216 | 11.3 | 20.9 | 0.00 | 0.00 | 0.00 | 45 | 1017.7 |
| 20260502162223 | 20 | 227 | 12.9 | 20.9 | 0.00 | 0.00 | 0.00 | 45 | 1017.6 |
| 20260502161728 | 20 | 185 | 14.5 | 20.9 | 0.00 | 0.00 | 0.00 | 45 | 1017.7 |
| 20260502161232 | 20 | 202 | 12.9 | 20.9 | 0.00 | 0.00 | 0.00 | 45 | 1017.7 |
| 20260502160737 | 20 | 171 | 14.5 | 25.7 | 0.00 | 0.00 | 0.00 | 45 | 1017.7 |
| 20260502160243 | 20 | 191 | 12.9 | 25.7 | 0.00 | 0.00 | 0.00 | 44 | 1017.7 |
| 20260502151743 | 21 | 198 | 16.1 | 24.1 | 0.00 | 0.00 | 0.00 | 43 | 1018.1 |
| 20260502151225 | 21 | 178 | 12.9 | 25.7 | 0.00 | 0.00 | 0.00 | 43 | 1018.1 |
| 20260502150729 | 21 | 218 | 16.1 | 20.9 | 0.00 | 0.00 | 0.00 | 44 | 1018.1 |
| 20260502150233 | 20 | 229 | 12.9 | 22.5 | 0.00 | 0.00 | 0.00 | 44 | 1018.1 |
| 20260502130726 | 20 | 292 | 11.3 | 22.5 | 0.00 | 0.00 | 0.00 | 45 | 1019.5 |
| 20260502130251 | 20 | 196 | 12.9 | 30.6 | 0.00 | 0.00 | 0.00 | 46 | 1019.5 |
| 20260502123735 | 20 | 178 | 14.5 | 25.7 | 0.00 | 0.00 | 0.00 | 46 | 1019.8 |
| 20260502123223 | 20 | 175 | 14.5 | 25.7 | 0.00 | 0.00 | 0.00 | 46 | 1019.9 |
| 20260502122728 | 20 | 217 | 14.5 | 20.9 | 0.00 | 0.00 | 0.00 | 45 | 1019.8 |
| 20260502122253 | 20 | 161 | 14.5 | 24.1 | 0.00 | 0.00 | 0.00 | 46 | 1020.0 |
| 20260502121734 | 20 | 215 | 12.9 | 24.1 | 0.00 | 0.00 | 0.00 | 46 | 1020.0 |
| 20260502121238 | 20 | 205 | 14.5 | 22.5 | 0.00 | 0.00 | 0.00 | 46 | 1020.1 |
| 20260502120722 | 20 | 200 | 9.7 | 33.8 | 0.00 | 0.00 | 0.00 | 47 | 1020.1 |
| 20260502120228 | 20 | 207 | 12.9 | 25.7 | 0.00 | 0.00 | 0.00 | 46 | 1020.2 |
| 20260502115733 | 19 | 201 | 12.9 | 27.4 | 0.00 | 0.00 | 0.00 | 46 | 1020.2 |
| 20260502115257 | 20 | 203 | 12.9 | 22.5 | 0.00 | 0.00 | 0.00 | 46 | 1020.4 |
| 20260502114802 | 19 | 198 | 12.9 | 19.3 | 0.00 | 0.00 | 0.00 | 47 | 1020.5 |
| 20260502114227 | 20 | 213 | 12.9 | 19.3 | 0.00 | 0.00 | 0.00 | 46 | 1020.4 |
| 20260502113733 | 20 | 169 | 11.3 | 24.1 | 0.00 | 0.00 | 0.00 | 46 | 1020.5 |
| 20260502113238 | 19 | 209 | 11.3 | 20.9 | 0.00 | 0.00 | 0.00 | 46 | 1020.6 |
| 20260502112723 | 18 | 256 | 12.9 | 20.9 | 0.00 | 0.00 | 0.00 | 46 | 1020.7 |
| 20260502112228 | 19 | 210 | 14.5 | 22.5 | 0.00 | 0.00 | 0.00 | 47 | 1020.7 |
| 20260502111748 | 19 | 190 | 12.9 | 22.5 | 0.00 | 0.00 | 0.00 | 46 | 1020.9 |
| 20260502111252 | 18 | 193 | 14.5 | 22.5 | 0.00 | 0.00 | 0.00 | 46 | 1021.0 |
| 20260502110740 | 18 | 192 | 12.9 | 22.5 | 0.00 | 0.00 | 0.00 | 48 | 1021.1 |
| 20260502110225 | 18 | 192 | 9.7 | 20.9 | 0.00 | 0.00 | 0.00 | 47 | 1021.1 |
| 20260502105731 | 18 | 186 | 14.5 | 27.4 | 0.00 | 0.00 | 0.00 | 46 | 1021.2 |
| 20260502105234 | 18 | 203 | 11.3 | 27.4 | 0.00 | 0.00 | 0.00 | 47 | 1021.3 |
| 20260502104739 | 18 | 201 | 17.7 | 25.7 | 0.00 | 0.00 | 0.00 | 47 | 1021.3 |
| 20260502104224 | 18 | 221 | 12.9 | 25.7 | 0.00 | 0.00 | 0.00 | 47 | 1021.4 |
| 20260502103729 | 18 | 244 | 16.1 | 25.7 | 0.00 | 0.00 | 0.00 | 48 | 1021.4 |
| 20260502103235 | 18 | 178 | 14.5 | 25.7 | 0.00 | 0.00 | 0.00 | 47 | 1021.5 |
| 20260502102738 | 18 | 168 | 14.5 | 24.1 | 0.00 | 0.00 | 0.00 | 47 | 1021.4 |
| 20260502102241 | 18 | 188 | 9.7 | 27.4 | 0.00 | 0.00 | 0.00 | 48 | 1021.6 |
| 20260502101804 | 18 | 221 | 12.9 | 27.4 | 0.00 | 0.00 | 0.00 | 49 | 1021.6 |
| 20260502101226 | 18 | 188 | 16.1 | 22.5 | 0.00 | 0.00 | 0.00 | 48 | 1021.6 |
| 20260502100730 | 18 | 184 | 9.7 | 16.1 | 0.00 | 0.00 | 0.00 | 49 | 1021.8 |
| 20260502100235 | 17 | 190 | 12.9 | 19.3 | 0.00 | 0.00 | 0.00 | 49 | 1021.8 |
| 20260502091247 | 17 | 226 | 9.7 | 16.1 | 0.00 | 0.00 | 0.00 | 49 | 1022.3 |
| 20260502090732 | 17 | 151 | 8.0 | 16.1 | 0.00 | 0.00 | 0.00 | 49 | 1022.3 |
| 20260502090234 | 17 | 145 | 8.0 | 12.9 | 0.00 | 0.00 | 0.00 | 49 | 1022.4 |